Wind_Speed
8 9 10 9 9 9 9 10 10 9 9 9 10 10 10 10 10 11 11 11 11 11 11 11 12 12 12 11 12 13 13 13 13 13 13 14 14 15 15 16 17 16 16
8 8 9 9 8 9 9 10 10 10 10 10 10 10 10 10 10 11 12 11 11 11 11 11 12 11 12 12 13 13 14 14 14 13 14 14 15 15 16 16 17 17 17
9 8 8 8 8 9 9 9 10 10 10 10 10 10 11 11 11 11 11 11 11 11 12 12 11 11 12 12 13 13 14 14 13 13 13 15 16 16 17 17 17 18 17
9 8 8 9 9 9 9 9 9 10 10 10 11 11 11 12 12 12 12 12 12 12 12 12 12 11 11 12 12 13 13 13 12 12 12 13 14 15 16 17 17 18 17
10 10 10 10 9 9 9 9 9 10 10 10 11 12 12 13 13 13 12 12 12 13 12 12 12 12 12 12 12 12 12 13 13 13 13 13 14 15 15 16 17 18 18
11 10 10 10 10 10 9 9 9 10 10 11 11 12 13 13 13 13 13 13 13 13 13 14 13 13 13 13 12 12 12 13 13 13 15 15 15 15 16 17 17 19 19
10 10 10 10 11 10 10 10 10 10 11 11 12 12 12 13 13 14 14 13 13 14 14 14 14 14 14 13 13 13 13 13 13 14 15 16 16 16 17 17 18 19 20
11 10 10 10 11 12 12 11 11 12 12 13 13 13 12 12 13 13 13 14 14 14 14 14 14 14 14 14 14 14 14 13 14 14 15 16 17 17 17 18 19 20 21
11 11 11 11 11 12 12 12 12 12 13 14 14 13 12 12 11 12 12 13 13 13 14 14 14 14 14 14 14 15 15 15 15 15 15 16 16 17 18 19 19 19 20
11 11 12 11 12 12 13 13 12 12 12 13 14 13 12 12 11 12 12 13 13 13 13 14 14 15 15 15 15 15 15 15 15 15 15 16 17 18 18 19 19 18 19
11 11 12 12 12 12 13 13 12 12 12 12 13 12 12 12 11 11 12 13 13 13 13 14 14 15 15 15 15 15 15 16 16 16 16 17 17 17 18 18 18 18 18
11 11 12 12 12 12 12 12 12 12 11 11 12 12 11 11 12 12 12 12 13 14 14 14 14 15 15 15 16 16 16 16 16 16 17 17 17 17 16 17 17 18 18
12 12 12 12 12 12 11 11 11 11 11 12 11 11 11 11 12 12 12 12 13 13 13 14 14 15 15 16 16 16 16 16 17 17 17 16 16 16 15 15 16 17 18
12 13 13 12 12 11 11 11 11 10 11 11 12 11 11 12 12 12 12 13 13 13 13 14 14 15 15 15 15 15 16 16 16 16 15 15 15 15 15 15 16 17 17
12 12 12 11 11 11 11 11 11 11 11 12 12 12 12 13 13 13 13 14 14 14 13 13 14 14 15 14 15 15 15 16 16 15 15 14 15 15 15 16 16 16 17
11 11 10 10 10 11 11 11 11 12 11 12 12 12 12 13 13 13 14 14 14 13 13 14 14 14 13 14 14 15 16 16 16 15 15 15 15 15 15 15 16 17 17
10 10 11 10 11 11 12 12 12 11 12 12 12 13 13 13 13 13 13 13 13 13 13 13 14 13 14 14 14 15 16 16 15 15 16 16 16 16 16 15 16 17 18
11 11 11 11 12 12 12 12 12 12 12 12 13 13 13 13 13 13 14 13 13 13 13 13 14 14 15 15 15 16 16 16 16 15 16 16 16 16 16 16 17 18 18
12 12 12 12 12 12 12 13 13 13 13 13 14 14 14 14 14 14 14 14 14 14 14 14 15 15 16 16 16 17 17 16 16 16 16 16 16 17 16 16 17 18 19
13 12 13 13 13 12 12 13 13 13 13 13 14 14 14 14 14 14 14 14 14 14 15 15 15 15 16 16 16 17 16 15 15 15 16 16 17 17 17 17 18 18 19
13 13 13 14 13 13 13 14 14 13 13 13 14 14 14 14 14 14 14 14 15 14 14 14 15 16 16 16 16 15 14 14 14 15 15 16 16 17 18 19 19 19 20
14 14 15 15 14 14 14 14 13 12 13 13 13 14 14 15 15 15 15 15 15 15 14 15 15 15 15 15 14 14 14 14 14 15 15 16 17 17 18 19 20 21 21
15 15 15 15 15 14 14 14 13 13 13 13 14 14 14 14 15 15 15 16 15 15 15 15 15 15 14 14 13 13 14 14 15 15 15 15 16 17 18 19 19 20 20
15 15 15 14 14 13 13 13 13 14 14 14 14 14 14 15 15 15 15 14 15 15 15 15 15 14 14 13 13 14 14 14 15 16 16 16 17 18 19 19 20 20 20
15 15 15 14 14 13 13 13 13 14 14 14 14 14 14 15 15 14 15 15 15 15 15 15 14 14 14 14 14 14 15 16 16 17 17 17 18 18 19 20 20 20 20
15 15 15 15 14 14 14 14 14 14 14 14 14 14 15 15 15 15 15 15 15 16 16 15 14 15 15 15 15 15 16 17 17 17 17 18 18 18 19 19 20 20 20
Wind_Direction
267 268 262 264 266 264 265 265 263 262 263 263 263 261 261 262 260 264 267 269 270 267 266 266 266 268 268 266 266 266 268 270 270 266 262 258 255 255 255 250 250 250 247
269 272 268 267 267 264 265 264 264 264 262 263 265 263 265 265 264 265 266 269 271 271 268 269 267 265 265 267 270 270 271 274 274 268 264 261 260 260 254 254 254 250 249
270 267 268 272 268 264 264 263 262 262 261 261 262 262 262 263 264 265 266 267 268 270 271 271 270 266 265 268 272 272 275 277 276 272 267 265 262 262 261 257 255 252 253
266 264 269 275 274 272 268 265 263 261 261 262 263 264 264 265 266 266 267 267 269 268 270 272 269 268 269 267 271 273 276 276 274 273 269 265 260 259 260 255 254 253 252
266 267 270 275 276 274 271 266 264 264 265 266 266 266 268 270 269 269 268 268 268 268 267 267 266 269 269 268 272 276 275 274 273 270 268 263 260 261 258 255 253 253 253
267 266 270 272 275 276 274 267 269 267 266 267 267 267 267 268 269 268 268 269 268 266 265 266 264 267 267 269 271 275 277 277 276 272 270 266 263 262 258 255 253 252 251
268 263 269 271 273 273 275 272 269 271 270 271 270 269 269 269 268 268 267 269 270 267 265 263 263 266 268 267 267 270 273 277 278 277 274 269 266 264 261 257 255 251 250
270 266 268 271 274 273 274 273 270 273 273 274 276 274 272 270 269 269 268 270 271 267 265 263 262 263 266 267 267 270 275 274 275 279 274 269 265 264 263 259 257 254 252
267 264 265 271 278 278 275 273 274 276 275 273 272 271 270 270 269 269 268 270 270 267 266 264 262 263 264 267 269 273 272 274 274 277 274 270 268 266 264 261 260 256 254
265 264 267 272 277 280 279 277 276 275 273 270 268 267 266 268 269 270 270 270 269 267 266 267 265 263 264 266 271 274 274 277 276 278 274 272 270 268 265 262 259 256 254
265 266 268 271 274 277 278 278 279 277 274 269 267 266 264 265 267 269 270 268 266 265 265 267 267 264 264 265 269 272 275 277 279 280 277 275 273 269 263 259 257 256 256
265 264 267 271 274 276 278 278 280 278 273 270 268 267 265 264 265 266 268 265 265 265 265 267 268 262 263 265 268 271 273 275 279 281 281 278 276 271 263 257 255 256 258
265 264 267 271 276 280 278 276 278 275 270 271 269 264 264 263 263 264 263 265 266 266 265 267 267 264 265 267 268 271 273 275 278 280 282 280 277 271 266 258 258 261 259
268 267 268 270 274 277 278 277 277 273 269 271 267 264 263 264 264 265 264 267 270 271 269 267 267 267 268 270 270 272 273 276 278 280 281 280 278 271 267 262 263 264 264
272 273 270 271 274 277 277 277 273 271 273 272 267 266 267 267 267 267 268 269 271 271 271 268 265 266 269 269 273 275 276 277 279 277 278 280 280 275 271 266 266 267 269
276 277 273 274 276 277 278 278 273 270 269 271 268 267 269 269 268 270 272 272 273 274 273 270 268 270 271 276 278 277 277 279 280 279 278 279 280 277 273 270 269 270 272
276 277 275 273 276 280 281 280 275 273 269 268 268 267 268 267 269 272 273 275 275 274 274 274 269 268 276 277 277 278 279 281 284 283 281 280 278 276 274 273 273 273 274
276 276 276 274 278 280 278 276 275 274 272 272 271 271 268 266 269 272 273 274 274 275 275 274 271 272 277 279 280 282 281 283 284 282 280 278 275 274 273 276 274 274 276
277 277 277 276 276 276 276 276 276 275 274 274 272 271 269 267 269 272 273 273 272 275 276 274 275 274 277 279 277 278 279 281 282 281 278 276 274 275 275 274 274 276 278
277 277 279 278 276 272 273 276 277 274 273 273 272 270 269 268 268 272 274 273 273 276 277 276 277 276 276 277 277 277 277 280 283 283 278 276 276 277 278 275 276 279 282
275 276 280 278 274 271 272 273 273 273 273 273 272 271 270 269 269 271 273 275 275 277 276 275 280 279 275 275 277 277 277 279 281 281 279 278 280 281 281 279 279 281 282
276 276 281 278 275 273 273 270 269 269 271 273 272 272 271 269 270 271 272 272 275 276 276 276 280 279 274 272 272 275 277 278 280 281 281 281 283 284 284 284 284 282 282
276 275 278 276 275 274 272 268 265 268 272 273 274 272 273 271 270 271 271 270 272 273 275 277 277 276 274 272 273 276 279 280 282 284 283 284 285 286 287 286 287 288 286
275 276 276 273 274 275 272 268 265 268 272 273 272 271 274 274 272 271 271 271 272 272 274 278 275 274 273 272 273 276 279 283 283 283 285 287 287 287 288 288 290 289 289
272 273 272 269 271 273 273 272 270 272 272 271 269 270 273 274 272 272 273 274 274 273 274 277 275 274 273 272 274 278 280 284 285 284 285 289 290 290 290 291 291 290 289
267 269 270 268 268 270 274 276 275 275 272 269 268 270 272 272 271 272 273 273 273 271 272 273 274 273 275 275 276 279 282 283 283 284 285 289 293 293 294 294 293 292 292
Height
5862 5862 5862 5862 5862 5862 5862 5862 5862 5862 5861 5862 5861 5861 5861 5861 5861 5861 5862 5862 5862 5862 5862 5861 5861 5861 5861 5861 5861 5861 5861 5861 5861 5862 5862 5862 5863 5863 5864 5865 5865 5866 5867
5860 5860 5860 5860 5860 5860 5860 5859 5859 5859 5859 5859 5859 5859 5859 5859 5859 5859 5859 5859 5859 5859 5859 5859 5859 5859 5859 5858 5858 5858 5858 5858 5858 5858 5858 5859 5859 5859 5860 5861 5862 5863 5863
5857 5857 5857 5857 5857 5857 5857 5857 5857 5857 5857 5857 5857 5857 5857 5857 5857 5857 5856 5856 5856 5856 5856 5856 5856 5856 5856 5856 5856 5855 5855 5855 5855 5855 5855 5855 5855 5855 5856 5857 5858 5859 5860
5855 5855 5855 5855 5854 5854 5854 5854 5854 5855 5855 5855 5854 5854 5854 5854 5854 5854 5853 5854 5853 5853 5853 5853 5853 5853 5853 5853 5853 5853 5852 5852 5852 5851 5851 5851 5851 5852 5852 5853 5854 5855 5856
5852 5852 5852 5852 5852 5852 5852 5852 5852 5852 5852 5852 5852 5851 5851 5851 5850 5850 5851 5850 5851 5850 5850 5850 5850 5850 5850 5850 5850 5849 5849 5849 5848 5848 5847 5847 5847 5848 5848 5848 5849 5850 5851
5850 5850 5850 5849 5849 5849 5849 5849 5849 5849 5849 5849 5848 5848 5848 5848 5847 5847 5847 5847 5847 5847 5847 5847 5847 5847 5847 5847 5847 5846 5846 5845 5845 5844 5844 5843 5843 5844 5844 5844 5845 5846 5847
5847 5847 5847 5846 5847 5847 5846 5846 5846 5846 5845 5845 5845 5845 5844 5844 5844 5844 5843 5843 5843 5843 5844 5844 5844 5844 5844 5844 5844 5843 5842 5842 5841 5840 5840 5839 5839 5839 5840 5840 5840 5841 5842
5844 5844 5844 5844 5843 5843 5843 5843 5843 5842 5842 5841 5841 5841 5840 5841 5840 5840 5839 5840 5839 5839 5840 5840 5840 5840 5840 5840 5840 5840 5839 5838 5838 5837 5836 5835 5835 5835 5835 5835 5835 5836 5836
5841 5841 5841 5840 5840 5840 5840 5840 5839 5839 5838 5838 5837 5837 5837 5837 5836 5836 5836 5836 5835 5835 5836 5836 5836 5836 5836 5836 5836 5836 5835 5834 5834 5833 5832 5831 5830 5830 5830 5830 5830 5830 5831
5837 5837 5837 5837 5837 5837 5836 5836 5836 5835 5834 5834 5833 5833 5833 5833 5833 5832 5832 5832 5832 5832 5832 5832 5832 5832 5832 5832 5832 5832 5831 5830 5830 5829 5828 5827 5826 5825 5825 5824 5824 5825 5826
5834 5834 5834 5833 5833 5833 5832 5832 5831 5831 5830 5830 5829 5829 5829 5829 5829 5829 5828 5828 5828 5828 5828 5828 5828 5828 5827 5827 5827 5827 5827 5826 5825 5824 5823 5822 5820 5820 5819 5819 5819 5820 5821
5830 5830 5830 5830 5829 5829 5828 5828 5827 5827 5826 5826 5825 5825 5825 5825 5825 5825 5825 5824 5824 5824 5824 5824 5823 5823 5823 5823 5823 5822 5822 5821 5820 5819 5817 5816 5815 5814 5814 5814 5814 5815 5815
5826 5826 5826 5826 5825 5825 5824 5824 5823 5823 5822 5822 5821 5821 5821 5821 5821 5821 5821 5821 5820 5820 5820 5820 5819 5819 5819 5819 5818 5818 5817 5817 5816 5814 5813 5811 5810 5810 5809 5809 5810 5810 5810
5822 5822 5822 5822 5821 5821 5821 5820 5819 5819 5819 5818 5818 5817 5817 5817 5817 5817 5817 5817 5816 5816 5816 5816 5815 5815 5814 5814 5813 5813 5812 5812 5811 5809 5808 5807 5806 5805 5805 5805 5805 5805 5806
5819 5818 5818 5817 5817 5817 5817 5816 5816 5815 5815 5814 5814 5813 5813 5813 5813 5813 5813 5813 5813 5812 5812 5811 5811 5810 5810 5809 5809 5808 5808 5807 5806 5805 5804 5803 5802 5801 5801 5801 5801 5801 5801
5815 5815 5814 5814 5813 5813 5813 5812 5812 5811 5811 5810 5810 5810 5810 5809 5809 5809 5809 5808 5808 5808 5808 5807 5807 5806 5805 5805 5804 5804 5803 5802 5801 5800 5799 5799 5798 5797 5797 5796 5796 5796 5796
5811 5811 5811 5810 5810 5809 5809 5808 5808 5807 5807 5806 5806 5806 5806 5805 5805 5805 5805 5804 5804 5804 5804 5803 5802 5801 5801 5800 5800 5799 5798 5797 5796 5795 5795 5794 5793 5793 5792 5792 5791 5791 5790
5808 5807 5807 5807 5806 5805 5805 5805 5804 5804 5803 5802 5802 5802 5801 5801 5801 5801 5801 5800 5800 5799 5799 5798 5798 5797 5796 5796 5795 5794 5793 5792 5791 5791 5790 5789 5789 5788 5787 5787 5786 5785 5785
5804 5804 5803 5803 5802 5801 5801 5800 5800 5800 5799 5798 5798 5798 5797 5797 5797 5797 5797 5796 5795 5795 5795 5794 5793 5793 5792 5791 5790 5790 5789 5788 5787 5786 5785 5784 5784 5783 5782 5781 5780 5779 5779
5800 5800 5799 5798 5797 5797 5796 5796 5796 5795 5795 5794 5793 5793 5793 5793 5793 5793 5792 5792 5791 5791 5790 5789 5788 5788 5787 5786 5785 5785 5784 5783 5782 5781 5780 5779 5779 5778 5777 5775 5774 5774 5773
5796 5795 5795 5794 5793 5792 5792 5792 5791 5790 5790 5789 5789 5789 5788 5788 5788 5788 5788 5787 5787 5786 5785 5785 5784 5783 5782 5781 5780 5779 5779 5778 5778 5777 5776 5775 5774 5773 5772 5770 5769 5768 5767
5791 5791 5790 5789 5788 5788 5787 5787 5786 5786 5785 5785 5785 5784 5784 5784 5784 5783 5783 5783 5782 5781 5781 5780 5779 5777 5776 5776 5775 5775 5775 5774 5774 5773 5772 5771 5769 5768 5767 5765 5764 5762 5761
5787 5786 5785 5785 5784 5783 5782 5782 5781 5781 5781 5780 5780 5780 5780 5779 5779 5779 5779 5778 5778 5776 5776 5775 5774 5773 5772 5771 5771 5771 5770 5770 5769 5768 5767 5766 5765 5763 5762 5760 5758 5757 5755
5782 5782 5781 5780 5779 5779 5777 5777 5776 5776 5776 5776 5776 5775 5775 5775 5774 5774 5774 5773 5773 5772 5771 5770 5770 5769 5768 5767 5767 5767 5766 5765 5764 5763 5762 5762 5760 5758 5757 5755 5753 5751 5749
5778 5777 5777 5776 5775 5775 5773 5772 5772 5771 5771 5771 5771 5771 5771 5770 5770 5769 5769 5769 5768 5768 5767 5766 5765 5765 5764 5763 5763 5762 5761 5761 5760 5759 5757 5756 5755 5753 5752 5750 5747 5746 5744
5773 5772 5772 5771 5771 5770 5769 5768 5767 5766 5766 5766 5766 5766 5766 5766 5765 5765 5765 5764 5764 5763 5763 5762 5761 5760 5760 5759 5758 5758 5757 5756 5755 5754 5753 5751 5750 5748 5746 5744 5742 5740 5738